Lid_Strength_Index
7 11 12 10 8 8 9 10 11 9 7 10 10 11 10 9 9 9 9 9 8 7 5 5 5 5 6 5 2 2 2 1 1 2 2 2 2 1 1 2 1 1 1 1
9 11 9 8 8 8 9 11 11 9 8 9 10 11 10 10 9 9 8 8 8 7 7 6 6 6 4 5 2 2 2 2 1 1 1 1 1 1 1 1 2 2 1 1
11 9 7 8 9 9 9 10 10 10 9 8 11 10 11 9 9 8 8 8 7 7 6 6 4 4 5 3 3 2 2 2 1 1 1 3 3 3 3 3 2 2 2 2
11 9 9 9 9 9 11 8 8 9 10 13 10 14 10 10 10 9 7 8 9 7 6 5 5 5 6 6 4 2 2 2 1 1 2 2 3 3 2 2 2 2 2 1
10 9 10 11 11 9 9 8 9 9 11 12 11 15 12 11 10 9 7 7 7 8 6 5 5 5 5 5 5 5 2 2 2 1 2 2 3 2 3 3 3 3 2 2
9 7 8 8 8 8 8 10 10 11 12 15 12 14 12 11 10 9 7 6 7 7 6 5 4 4 3 3 3 4 4 2 2 2 2 2 2 3 3 3 3 2 1 1
10 9 8 7 9 8 9 11 15 15 16 16 11 13 11 10 8 8 7 7 6 6 5 5 5 4 4 4 4 3 3 3 2 2 2 2 3 3 3 2 2 3 2 2
15 16 10 8 9 10 10 11 15 19 18 15 11 14 11 8 7 7 6 7 6 6 5 5 5 4 4 4 4 4 4 4 3 3 4 3 2 3 4 4 3 3 3 3
15 15 8 8 7 8 11 13 10 13 13 16 13 11 9 7 7 7 7 6 6 6 5 5 5 4 5 5 5 5 5 5 6 6 5 5 5 4 4 3 3 4 4 3
11 15 10 9 8 8 9 8 14 13 21 21 16 14 13 10 9 9 7 7 6 6 5 5 5 5 4 4 4 4 3 4 4 4 4 3 4 4 4 4 3 3 1 1
10 12 12 9 11 12 11 12 12 13 15 20 21 17 10 10 9 9 8 6 6 6 5 5 5 5 4 3 3 4 4 4 4 4 4 4 4 4 3 2 2 2 2 2
9 11 15 13 9 8 10 11 12 17 18 16 17 17 8 8 7 7 8 6 6 5 5 5 5 5 4 4 4 4 4 4 4 3 3 3 2 3 3 3 3 3 3 3
10 13 16 16 12 10 12 12 12 12 12 17 19 17 8 8 8 7 8 7 6 6 5 5 5 5 5 5 4 4 4 5 4 4 4 4 4 4 4 4 4 5 5 5
7 12 14 17 15 12 13 13 13 13 15 15 16 15 11 9 8 7 7 7 7 6 5 6 5 6 5 5 5 5 6 6 6 6 5 6 5 5 5 5 6 6 7 7
10 14 12 12 11 11 12 13 12 13 13 15 13 13 12 9 9 8 7 7 7 6 6 5 6 6 5 5 5 6 6 6 6 7 7 6 6 6 6 7 8 7 8 9
10 14 13 14 11 11 13 13 13 12 12 11 12 13 10 8 8 8 7 7 6 6 5 5 5 5 5 6 5 6 6 6 7 7 8 7 7 8 8 8 9 9 10 10
13 14 15 16 13 13 16 13 12 12 11 12 15 13 9 9 9 9 7 7 7 8 6 5 5 5 6 6 6 7 7 7 8 9 8 8 8 9 9 9 10 10 11 11
13 14 15 18 15 22 14 10 10 11 11 10 11 10 9 9 8 7 7 9 8 7 5 5 6 7 7 7 8 8 8 9 9 9 9 9 9 10 10 10 10 11 10 10
11 13 18 19 18 15 14 12 11 11 12 10 11 9 9 9 9 8 7 8 8 7 5 6 6 7 8 8 7 9 9 9 10 10 10 10 10 10 10 11 11 11 11 11
11 11 14 22 23 23 15 10 8 8 14 8 8 9 10 9 13 11 7 7 8 7 5 7 8 8 8 8 8 9 10 10 11 11 11 11 11 11 12 12 12 12 12 13
14 14 15 15 16 15 11 9 7 14 13 8 7 8 8 10 9 8 7 8 5 5 7 7 8 9 9 9 9 11 11 12 11 11 11 11 12 12 12 13 13 14 14 14
15 15 16 14 15 18 9 9 11 9 8 8 8 7 7 8 7 7 7 8 8 8 8 9 10 10 10 10 10 11 11 11 12 13 12 13 12 13 13 14 14 13 14 14
14 11 13 12 13 9 8 9 7 7 7 8 7 6 6 7 7 7 8 8 8 9 10 11 12 12 12 11 11 12 12 12 13 13 14 14 14 14 14 14 15 15 14 15
10 8 11 11 9 8 7 6 6 6 6 6 6 7 6 7 7 8 9 7 9 11 12 12 13 13 13 13 12 13 13 13 13 15 15 14 15 15 14 15 15 16 17 16
10 9 10 10 9 8 7 7 6 6 6 6 5 5 5 6 8 9 9 8 10 12 12 12 14 14 14 14 14 13 13 13 14 14 15 15 16 16 17 16 16 16 15 15
9 10 11 12 8 8 8 6 5 6 6 5 5 5 5 6 8 8 8 9 11 13 14 14 15 15 15 14 14 14 14 14 16 16 17 17 17 18 17 18 17 15 15 14